DW0723 Weather Reports


time (UTC)temp
F
wind
direction
speed
knots
gust
knots
rain 1hr
in
rain 24hr
in
rain mn
in
humidity
%
barometer
mb
20260906162737 71 11 0.0 5.2 0.00 0.00 0.00 85 1019.5
20260906155736 69 360 1.7 7.8 0.00 0.00 0.00 89 1019.4
20260906152736 68 28 0.0 6.1 0.00 0.00 0.00 91 1019.2
20260906145736 66 39 2.6 6.1 0.00 0.00 0.00 91 1019.2
20260906142735 65 25 0.0 5.2 0.00 0.00 0.00 91 1019.0
20260906135735 64 37 3.5 5.2 0.00 0.00 0.00 91 1019.0
20260906132735 63 28 3.5 4.3 0.00 0.00 0.00 92 1019.4
20260906125734 62 26 3.5 4.3 0.00 0.00 0.00 91 1019.0
20260906122734 61 15 0.0 2.6 0.00 0.00 0.00 91 1018.6
20260906115733 61 5 2.6 3.5 0.00 0.00 0.00 91 1018.6
20260906112733 61 42 0.0 2.6 0.00 0.00 0.00 91 1018.2
20260906102732 62 18 0.0 3.5 0.00 0.00 0.00 91 1017.8
20260906082731 62 13 0.0 0.0 0.00 0.00 0.00 90 1017.5
20260906075800 62 13 0.0 0.0 0.00 0.00 0.00 90 1017.4
20260906072730 62 13 0.0 0.0 0.00 0.00 0.00 90 1017.6
20260906062729 62 13 0.0 0.0 0.00 0.00 0.00 89 1017.2
20260906055758 63 13 0.0 0.0 0.00 0.00 0.00 89 1017.0
20260906052758 64 13 0.0 0.0 0.00 0.00 0.00 88 1016.9
20260906045758 65 13 0.0 0.0 0.00 0.00 0.00 88 1017.0
20260906042756 65 13 0.0 0.0 0.00 0.00 0.00 88 1016.6
20260906035757 66 13 0.0 0.0 0.00 0.00 0.00 88 1016.2
20260906025756 68 13 0.0 0.0 0.00 0.00 0.00 88 1016.2
20260906022756 69 13 0.0 2.6 0.00 0.00 0.00 88 1015.9
20260906015756 69 13 0.0 0.9 0.00 0.00 0.00 86 1015.8
20260906012755 70 13 0.0 0.0 0.00 0.00 0.00 84 1015.4
20260906005755 71 13 0.0 0.0 0.00 0.01 0.00 83 1015.3
20260906002754 72 13 0.0 0.0 0.00 0.01 0.00 82 1015.3
20260905235754 73 13 0.0 2.6 0.00 0.01 0.00 81 1015.5
20260905232754 73 11 0.0 3.5 0.00 0.01 0.00 81 1015.5
20260905225755 72 37 0.9 4.3 0.00 0.01 0.00 83 1015.4
20260905222753 72 350 0.0 3.5 0.00 0.01 0.00 82 1015.3
20260905215753 72 327 0.0 6.1 0.00 0.01 0.00 83 1015.3
20260905212752 71 10 0.9 5.2 0.00 0.01 0.00 85 1015.3
20260905205752 71 9 2.6 6.1 0.00 0.01 0.00 86 1015.8
20260905195751 71 28 3.5 7.0 0.00 0.01 0.00 87 1015.9
20260905192750 70 48 0.0 5.2 0.00 0.01 0.00 87 1015.9
20260905185750 70 21 2.6 6.1 0.00 0.01 0.00 87 1015.7
20260905182750 70 36 0.0 7.8 0.00 0.01 0.00 87 1015.9
20260905172749 70 35 0.9 9.6 0.00 0.01 0.00 88 1016.0
20260905165749 70 46 1.7 9.6 0.00 0.01 0.00 88 1015.9